Tacoma Narrows, WA
on Thursday, January 3, 2013

Thursday
Previous Day Next Day
Daily Summary
 ActualAverageRecord
Temperature
Mean Temperature °F °F  
Max Temperature 39°F 43°F 53°F (2003)
Min Temperature 30°F 36°F 25°F (2004)
Degree Days
Heating Degree Days 30    
Moisture
Dew Point 31°F   
Average Humidity 88    
Maximum Humidity 100    
Minimum Humidity 65    
Precipitation
Precipitation 0.14 in in in ()
Wind
Wind Speed 1 mph   
Max Wind Speed 5 mph   
Max Gust Speed mph   
Visibility 4 miles   
Events Fog , Rain   
Averages and records for this station are not official NWS values.
Key: T is trace of precipitation, MM is missing value
Source: NWS Daily Summary
Seasonal Weather Averages
Time(PST)TemperatureDew PointHumidity Pressure Visibility Wind DirectionWind SpeedGust SpeedPrecipitationEvents Conditions
12:12 AM 30.2°F 28.4°F 93% 30.18 in 0.2 miles Calm Calm - N/A Fog Light Freezing Fog
12:53 AM 34.0°F 32.0°F 92% 30.20 in 0.2 miles Calm Calm - N/A Fog Fog
1:53 AM 33.1°F 30.9°F 92% 30.21 in 0.2 miles South 3.5 mph - N/A Fog Fog
2:53 AM 32.0°F 30.0°F 92% 30.20 in 0.2 miles Calm Calm - N/A Fog Fog
3:53 AM 30.9°F 28.9°F 92% 30.19 in 0.2 miles Calm Calm - N/A Fog Light Freezing Fog
4:17 AM 30.2°F 30.2°F 100% 30.16 in 0.5 miles Calm Calm - N/A Fog Light Freezing Fog
4:32 AM 32.0°F 30.2°F 93% 30.16 in 0.2 miles Calm Calm - N/A Fog Fog
4:53 AM 30.9°F 30.0°F 96% 30.17 in 0.2 miles Calm Calm - N/A Fog Light Freezing Fog
5:53 AM 30.9°F 28.9°F 92% 30.15 in 0.2 miles Calm Calm - N/A Fog Light Freezing Fog
6:53 AM 30.9°F 30.0°F 96% 30.15 in 0.2 miles Calm Calm - N/A Fog Light Freezing Fog
7:53 AM 30.0°F 28.0°F 92% 30.14 in 0.2 miles Calm Calm - N/A Fog Light Freezing Fog
8:46 AM 30.2°F 28.4°F 93% 30.13 in 0.2 miles Calm Calm - N/A Fog Light Freezing Fog
8:53 AM 30.0°F 28.9°F 96% 30.15 in 0.2 miles Calm Calm - N/A Fog Light Freezing Fog
9:08 AM 30.2°F 28.4°F 93% 30.13 in 0.2 miles Calm Calm - N/A Fog Light Freezing Fog
9:53 AM 30.9°F 30.0°F 96% 30.17 in 0.2 miles Calm Calm - N/A Fog Light Freezing Fog
10:11 AM 32.0°F 30.2°F 93% 30.15 in 0.2 miles WNW 4.6 mph - N/A Fog Fog
10:53 AM 34.0°F 32.0°F 92% 30.17 in 0.5 miles Calm Calm - N/A Fog Fog
11:14 AM 33.8°F 33.8°F 100% 30.14 in 3.0 miles Calm Calm - N/A   Scattered Clouds
11:53 AM 37.9°F 30.9°F 76% 30.15 in 10.0 miles Calm Calm - N/A   Clear
12:53 PM 39.9°F 28.9°F 65% 30.13 in 10.0 miles Calm Calm - N/A   Clear
1:53 PM 39.9°F 30.0°F 68% 30.13 in 10.0 miles SW 4.6 mph - N/A   Clear
2:53 PM 37.9°F 28.9°F 70% 30.14 in 10.0 miles SW 3.5 mph - N/A   Scattered Clouds
3:53 PM 39.0°F 28.0°F 65% 30.15 in 10.0 miles WSW 4.6 mph - N/A   Overcast
4:53 PM 37.9°F 28.0°F 68% 30.12 in 10.0 miles NNE 4.6 mph - N/A   Overcast
5:53 PM 37.0°F 32.0°F 82% 30.14 in 10.0 miles Calm Calm - 0.00 in Rain Light Rain
6:53 PM 37.0°F 32.0°F 82% 30.13 in 9.0 miles Calm Calm - 0.06 in Rain Light Rain
7:53 PM 36.0°F 33.1°F 89% 30.14 in 9.0 miles WNW 3.5 mph - 0.02 in   Overcast
8:53 PM 35.1°F 33.1°F 92% 30.14 in 10.0 miles NW 3.5 mph - 0.01 in   Overcast
9:53 PM 36.0°F 33.1°F 89% 30.15 in 6.0 miles North 3.5 mph - 0.02 in Rain Light Rain
10:01 PM 35.6°F 33.8°F 93% 30.14 in 6.0 miles North 3.5 mph - 0.01 in Rain Light Rain
10:53 PM 36.0°F 34.0°F 93% 30.17 in 6.0 miles Calm Calm - 0.01 in Rain Light Rain
11:38 PM 37.4°F 35.6°F 93% 30.16 in 7.0 miles Calm Calm - 0.01 in   Overcast
11:53 PM 37.0°F 34.0°F 89% 30.17 in 5.0 miles Calm Calm - 0.02 in Rain Light Rain
Moon Phase
Jan. 03 Jan. 04 Jan. 11 Jan. 18 Jan. 26
Sunrise:07:57 AM (PST) Moon Rise:11:44 PM (PST)1/3
Sunset:04:33 PM (PST) Moon Set:10:44 AM (PST)1/3

Copyright © 2014 The Weather Underground, Inc.